Date String (YYYY-MM-DD hh:mm:ss) UTC,Instrument flags,Ambient pressure (hPa),Sample flow (lpm),Bypass flow (lpm),Sample temperature (°C),Ambient temperature (°C),ASC tube jacket temperature (°C),LED temperature (°C),Box temperature (°C),Sample RH (%),Span deviation,Mass concentration (μg/m³),Mass concentration (μg/m³),Mass concentration (μg/m³)
DateTimeUTC,F1_M11,P_M11,Q1_M11,Q2_M11,T1_M11,T2_M11,T3_M11,T4_M11,T5_M11,U1_M11,ZSPAN_M11,X0_M11,X2_M11,X1_M11
2021-09-08 15:00:00,,0833.0,4.99,0.00,30.1,28.8,00.0,39.2,31.8,14.4,0001.8,0058.57,0038.27,0035.55
2021-09-08 15:01:00,,0833.0,4.99,0.00,30.1,28.9,00.0,39.2,31.8,15.9,0001.5,0057.09,0038.25,0035.53
2021-09-08 15:02:00,,0833.0,4.99,0.00,30.1,29.0,00.0,39.2,31.9,18.4,0001.5,0057.13,0038.27,0035.52
2021-09-08 15:03:00,,0833.1,4.99,0.00,30.1,29.1,00.0,39.2,31.9,18.9,0001.5,0057.64,0038.19,0035.45
2021-09-08 15:04:00,,0833.0,4.99,0.00,30.2,29.1,00.0,39.2,31.9,18.1,0001.3,0057.68,0038.18,0035.40
2021-09-08 15:05:00,,0833.0,5.02,0.00,30.2,29.2,00.0,39.3,32.0,17.8,0001.3,0058.79,0038.27,0035.39
2021-09-08 15:06:00,,0833.0,4.99,0.00,30.2,29.3,00.0,39.3,32.0,18.5,0001.4,0058.79,0038.24,0035.37
2021-09-08 15:07:00,,0833.1,4.99,0.00,30.2,29.3,00.0,39.3,32.0,17.4,0001.5,0059.14,0038.08,0035.28
2021-09-08 15:08:00,,0833.0,5.00,0.00,30.3,29.4,00.0,39.3,32.1,15.9,0001.4,0059.21,0038.00,0035.30
2021-09-08 15:09:00,,0833.0,5.00,0.00,30.3,29.4,00.0,39.3,32.1,15.7,0001.2,0059.31,0038.07,0035.37
2021-09-08 15:10:00,,0833.0,4.99,0.00,30.3,29.2,00.0,39.3,32.0,15.8,0001.2,0059.05,0038.16,0035.44
2021-09-08 15:11:00,,0833.0,5.01,0.00,30.3,27.4,00.0,39.3,31.6,16.7,0001.2,0059.74,0038.26,0035.51
2021-09-08 15:12:00,,0833.1,4.99,0.00,30.1,26.4,00.0,39.3,31.3,16.9,0001.5,0059.57,0038.24,0035.52
2021-09-08 15:13:00,,0833.1,5.00,0.00,30.0,26.8,00.0,39.2,31.4,17.4,0001.5,0058.67,0038.26,0035.55
2021-09-08 15:14:00,,0833.0,5.00,0.00,29.9,27.2,00.0,39.2,31.4,17.3,0001.4,0058.14,0038.35,0035.60
2021-09-08 15:15:00,,0833.0,5.01,0.00,29.9,27.6,00.0,39.2,31.5,18.1,0001.5,0058.16,0038.27,0035.60
2021-09-08 15:16:00,,0833.0,4.99,0.00,29.9,27.9,00.0,39.1,31.5,19.3,0001.5,0057.10,0038.16,0035.53
2021-09-08 15:17:00,,0833.1,5.00,0.00,29.9,28.2,00.0,39.1,31.6,20.8,0001.3,0057.13,0038.11,0035.45
2021-09-08 15:18:00,,0833.0,5.00,0.00,30.0,28.4,00.0,39.1,31.7,21.5,0001.1,0057.80,0038.10,0035.39
2021-09-08 15:19:00,,0833.0,5.01,0.00,30.0,28.6,00.0,39.1,31.7,21.9,0001.3,0058.59,0038.02,0035.25
2021-09-08 15:20:00,,0833.1,4.99,0.00,30.0,28.7,00.0,39.1,31.8,22.0,0001.4,0058.59,0037.89,0035.05
2021-09-08 15:21:00,,0833.1,5.00,0.00,30.0,28.8,00.0,39.1,31.8,22.4,0001.2,0058.19,0037.73,0034.81
2021-09-08 15:22:00,,0833.1,5.01,0.00,30.1,29.0,00.0,39.1,31.8,23.3,0001.2,0058.37,0037.54,0034.56
2021-09-08 15:23:00,,0833.1,5.01,0.00,30.1,29.0,00.0,39.1,31.9,23.3,0001.2,0058.46,0037.41,0034.35
2021-09-08 15:24:00,,0833.1,4.99,0.00,30.1,29.1,00.0,39.2,31.9,23.1,0001.3,0059.41,0037.37,0034.17
2021-09-08 15:25:00,,0833.1,5.00,0.00,30.2,29.2,00.0,39.2,32.0,22.6,0001.6,0059.69,0037.14,0033.96
2021-09-08 15:26:00,,0833.1,4.99,0.00,30.2,29.3,00.0,39.2,32.0,23.2,0001.7,0059.48,0037.04,0033.81
2021-09-08 15:27:00,,0833.1,5.01,0.00,30.2,29.3,00.0,39.2,32.0,23.2,0001.6,0060.66,0036.98,0033.69
2021-09-08 15:28:00,,0833.1,5.00,0.00,30.2,28.5,00.0,39.2,31.8,22.7,0001.8,0061.81,0037.02,0033.63
2021-09-08 15:29:00,,0833.1,5.00,0.00,30.1,26.7,00.0,39.2,31.3,23.4,0002.0,0060.71,0036.99,0033.58
2021-09-08 15:30:00,,0833.1,5.00,0.00,29.9,26.5,00.0,39.2,31.2,23.4,0002.1,0060.85,0036.96,0033.55
2021-09-08 15:31:00,,0833.2,5.00,0.00,29.9,26.9,00.0,39.1,31.3,22.9,0002.2,0062.84,0036.94,0033.53
2021-09-08 15:32:00,,0833.1,5.00,0.00,29.8,27.3,00.0,39.1,31.4,22.9,0002.4,0064.35,0036.89,0033.53
2021-09-08 15:33:00,,0833.1,5.01,0.00,29.8,27.7,00.0,39.1,31.4,23.4,0002.6,0064.36,0036.79,0033.51
2021-09-08 15:34:00,,0833.1,4.98,0.00,29.9,28.0,00.0,39.0,31.5,22.3,0002.6,0064.99,0036.75,0033.47
2021-09-08 15:35:00,,0833.1,5.01,0.00,29.9,28.3,00.0,39.0,31.6,22.7,0002.6,0064.71,0036.64,0033.48
2021-09-08 15:36:00,,0833.1,4.99,0.00,29.9,28.5,00.0,39.0,31.6,22.7,0002.6,0064.38,0036.68,0033.51
2021-09-08 15:37:00,,0833.1,4.99,0.00,29.9,28.6,00.0,39.0,31.7,21.6,0002.6,0064.84,0036.62,0033.51
2021-09-08 15:38:00,,0833.2,5.00,0.00,30.0,28.8,00.0,39.0,31.7,20.6,0002.7,0063.93,0036.66,0033.58
2021-09-08 15:39:00,,0833.2,5.01,0.00,30.0,28.9,00.0,39.1,31.8,19.6,0002.6,0063.05,0036.61,0033.64
2021-09-08 15:40:00,,0833.2,5.01,0.00,30.0,29.0,00.0,39.1,31.8,20.2,0002.5,0062.45,0036.70,0033.72
2021-09-08 15:41:00,,0833.1,5.00,0.00,30.1,29.1,00.0,39.1,31.9,19.5,0002.4,0060.70,0036.79,0033.81
2021-09-08 15:42:00,,0833.1,4.99,0.00,30.1,29.2,00.0,39.1,31.9,19.8,0002.4,0057.92,0036.75,0033.88
2021-09-08 15:43:00,,0833.2,5.01,0.00,30.1,29.0,00.0,39.1,31.9,18.3,0002.5,0055.94,0036.78,0033.99
2021-09-08 15:44:00,,0833.2,4.99,0.00,30.1,27.3,00.0,39.1,31.5,17.7,0002.6,0055.51,0036.97,0034.18
2021-09-08 15:45:00,,0833.2,5.00,0.00,29.9,26.2,00.0,39.1,31.1,18.6,0002.6,0054.38,0037.09,0034.36
2021-09-08 15:46:00,,0833.1,4.99,0.00,29.8,26.6,00.0,39.0,31.2,18.7,0002.5,0053.76,0037.17,0034.50
2021-09-08 15:47:00,,0833.2,5.00,0.00,29.8,27.0,00.0,39.0,31.2,20.0,0002.4,0053.91,0037.20,0034.62
2021-09-08 15:48:00,,0833.2,5.01,0.00,29.7,27.4,00.0,39.0,31.3,20.4,0002.1,0052.74,0037.31,0034.77
2021-09-08 15:49:00,,0833.2,4.99,0.00,29.7,27.8,00.0,38.9,31.4,19.0,0002.1,0052.46,0037.34,0034.84
2021-09-08 15:50:00,,0833.2,5.00,0.00,29.8,28.1,00.0,38.9,31.5,18.8,0002.2,0052.00,0037.32,0034.88
2021-09-08 15:51:00,,0833.2,5.00,0.00,29.8,28.3,00.0,38.9,31.5,17.8,0002.4,0051.78,0037.32,0034.94
2021-09-08 15:52:00,,0833.2,5.00,0.00,29.8,28.5,00.0,38.9,31.6,18.2,0002.4,0052.09,0037.29,0034.95
2021-09-08 15:53:00,,0833.3,5.00,0.00,29.9,28.7,00.0,38.9,31.7,18.7,0002.4,0053.00,0037.31,0034.94
2021-09-08 15:54:00,,0833.3,5.00,0.00,29.9,28.8,00.0,39.0,31.7,18.5,0002.1,0052.90,0037.34,0034.95
2021-09-08 15:55:00,,0833.3,4.99,0.00,29.9,28.9,00.0,39.0,31.7,17.2,0001.7,0052.89,0037.30,0034.93
2021-09-08 15:56:00,,0833.3,5.00,0.00,30.0,29.0,00.0,39.0,31.8,17.3,0001.9,0053.22,0037.34,0034.95
2021-09-08 15:57:00,,0833.3,4.99,0.00,30.0,29.1,00.0,39.0,31.9,17.8,0002.0,0052.57,0037.30,0034.95
2021-09-08 15:58:00,,0833.3,5.00,0.00,30.1,29.2,00.0,39.0,31.9,17.7,0001.9,0052.41,0037.34,0035.00
2021-09-08 15:59:00,,0833.3,5.01,0.00,30.1,29.0,00.0,39.1,31.9,16.9,0002.1,0053.86,0037.36,0035.01
